SL-19 DEB, 23488

Orbit data source: Space-Track

SL-19 DEB, 23488 is space debris in LEO originally from a launch on Mon, 26 Dec 1994 UTC launched from the Tyuratam Missile And Space Complex (TTMTR). Debris objects in space refer to the collection of defunct objects orbiting the Earth. Examples of debris include non-operational satellites, rocket bodies, and fragments generated from explosions, collisions, or faulty payload assembly.

Loading next visibility...
Identifier
23488, 1994-085L
Orbit
LEO
Last TLE update
12 hours ago
Origin
Manufacturer
Unknown
Mission
Spacecraft
Bus & Motor
Unknown
Mass
Unknown
Launch date (UTC)
1994-12-26 (30 years ago)
Launch vehicle
Unknown
Launch site
Tyuratam Missile And Space Complex (TTMTR)
Object type
Payload
Rocket body
Debris
Shape & HBR
Unknown
Radar Cross Section
Medium (>0.1 m² and <1 m²)

Expand to show TLE details & history

TLE from 12 hours ago
0 SL-19 DEB
1 23488U 94085L   25128.72964442  .00000886  00000-0  25241-1 0  9994
2 23488  65.0043  10.8177 0211635 198.3864 225.4552 11.29335824249240
Epoch: 2025-05-08T17:30Z
Definitive object data (Epoch: 2025-05-08T17:30:41.277Z)
Latitude
53.35974°
Longitude
-80.042°
Altitude
2,147.829 km
Speed
6.792 km/s
True Right ascension
03h 17m 42s
True Declination
53° 13' 19"
Sunlit
Object was in daylight at TLE epoch
Visualization TLE readout
Latitude
-60.11864°
Longitude
114.42318°
Altitude
1,930.343 km
Speed
6.971 km/s
Apparent Right ascension
21h 36m 51s
Apparent Declination
-73° 12' 22"
Sunlit
Object is in full shadow
Visualization observer readout
Local Sidereal Time
13:23:08
Azimuth
159.12° S
Elevation
-47.424°
Doppler factor
1
Orbital elements
Apogee altitude
2,189.983 km
Perigee altitude
1,834.837 km
Semi-major axis
8,390.547 km
Eccentricity
0.0211635
Inclination
65.0043°
RAAN
10.8177°
Arg. of periapsis
198.3864°
True anomaly
223.75854°
Mean anomaly
225.4552°
Eccentric anomaly
224.60373°
Mean motion
2.82395 °/min
BSTAR
0.025241
Orbital period
127.48 mins
Loading maneuver chart data...
Loading SW <> Apogee altitude chart data...
Loading historical data...
Loading historical data...
Loading historical data...
Loading historical data...
Loading historical data...
Loading historical data...
Loading historical data...

SL-19 DEB Visibility forecast

Observer location: undefined°, undefined°

Span
Click to sort rows by Start time (UTC) header in descending order
Start Az.
Max El. time (UTC)
Max El. Az.
Max El.
End time (UTC)
End Az.
22 mins2025-05-09 16:33:30.372Z176.802° S2025-05-09 16:44:30.372Z114.184° SE36.135°2025-05-09 16:55:30.372Z42.266° NE
22 mins2025-05-09 18:46:30.372Z235.631° WSW2025-05-09 18:57:30.372Z318.028° NNW39.893°2025-05-09 19:08:30.372Z27.703° NE
16 mins2025-05-09 21:05:30.372Z298.035° NW2025-05-09 21:12:30.372Z338.183° N21.629°2025-05-09 21:21:30.372Z29.283° NE
15 mins2025-05-09 23:23:30.372Z333.546° NNW2025-05-09 23:30:30.372Z13.369° NNE20.508°2025-05-09 23:38:30.372Z61.393° ENE
19 mins2025-05-10 01:37:30.372Z336.133° NNW2025-05-10 01:46:30.372Z43.036° NE38.537°2025-05-10 01:56:30.372Z121.795° SE
19 mins2025-05-10 03:49:30.372Z316.58° NNW2025-05-10 03:58:30.372Z254.502° W35.795°2025-05-10 04:08:30.372Z182.966° SSW
|